EW8588 Weather Reports


Display with metric or nautical units.
time (UTC)temp
F
wind
direction
speed
MPH
gust
MPH
rain 1hr
in
rain 24hr
in
rain mn
in
humidity
%
barometer
mb
20260510044524 76 103 1.0 8.0 0.00 0.00 0.00 90 1009.9
20260510043021 76 170 0.0 7.0 0.00 0.00 0.00 90 1010.2
20260510041519 77 155 0.0 2.0 0.00 0.00 0.00 90 1010.4
20260510040017 77 151 0.0 3.0 0.00 0.00 0.00 90 1010.5
20260510034517 77 122 0.0 4.0 0.00 0.00 0.00 90 1010.1
20260510033016 77 141 0.0 5.0 0.00 0.00 0.00 90 1009.8
20260510031522 77 164 0.0 4.0 0.00 0.00 0.00 90 1010.2
20260510030014 77 218 0.0 5.0 0.00 0.00 0.00 90 1010.0
20260510024513 78 121 0.0 3.0 0.00 0.00 0.00 89 1009.8
20260510023010 78 147 1.0 4.0 0.00 0.00 0.00 88 1009.4
20260510021513 78 171 1.0 5.0 0.00 0.00 0.00 87 1009.3
20260510020006 79 134 0.0 3.0 0.00 0.00 0.00 83 1008.6
20260510014507 79 132 1.0 4.0 0.00 0.00 0.00 79 1008.2
20260510013005 80 170 1.0 4.0 0.00 0.00 0.00 76 1007.9
20260510011506 80 173 1.0 3.0 0.00 0.00 0.00 74 1007.5
20260510010004 81 176 2.0 6.0 0.00 0.00 0.00 73 1006.8
20260510004503 82 162 0.0 5.0 0.00 0.00 0.00 69 1007.0
20260510003011 83 154 0.0 3.0 0.00 0.00 0.00 60 1006.9
20260510001502 83 151 1.0 5.0 0.00 0.00 0.00 63 1006.8
20260510000001 84 165 0.0 4.0 0.00 0.00 0.00 64 1006.5
20260509234643 85 151 0.0 5.0 0.00 0.00 0.00 64 1006.4
20260509233100 86 211 1.0 4.0 0.00 0.00 0.00 65 1006.3
20260509231600 86 144 1.0 4.0 0.00 0.00 0.00 68 1006.4
20260509230059 86 259 1.0 4.0 0.00 0.00 0.00 69 1006.4
20260509224559 86 136 1.0 4.0 0.00 0.00 0.00 71 1006.2
20260509223059 86 136 1.0 3.0 0.00 0.00 0.00 71 1006.2
20260509221558 87 153 2.0 5.0 0.00 0.00 0.00 70 1006.1
20260509220107 87 184 0.0 4.0 0.00 0.00 0.00 70 1006.0
20260509214556 88 117 0.0 4.0 0.00 0.00 0.00 70 1006.0
20260509213056 88 177 1.0 4.0 0.00 0.00 0.00 68 1005.9
20260509211557 89 162 0.0 3.0 0.00 0.00 0.00 66 1005.9
20260509210054 89 122 0.0 2.0 0.00 0.00 0.00 57 1006.0
20260509204553 88 117 0.0 3.0 0.00 0.00 0.00 62 1006.1
20260509203119 89 108 0.0 3.0 0.00 0.00 0.00 61 1006.2
20260509201559 88 160 0.0 1.0 0.00 0.00 0.00 59 1006.4
20260509200055 88 358 0.0 1.0 0.00 0.00 0.00 66 1006.7
20260509194546 90 199 0.0 4.0 0.00 0.00 0.00 61 1006.8
20260509193049 90 123 0.0 0.0 0.00 0.00 0.00 58 1006.8
20260509191554 90 170 0.0 2.0 0.00 0.00 0.00 61 1006.9
20260509190040 88 276 0.0 4.0 0.00 0.00 0.00 63 1007.0
20260509184537 88 161 1.0 3.0 0.00 0.01 0.00 59 1007.1
20260509183035 87 85 0.0 3.0 0.00 0.01 0.00 69 1007.4
20260509181537 86 288 0.0 2.0 0.00 0.01 0.00 70 1007.7
20260509180028 84 246 0.0 2.0 0.00 0.01 0.00 76 1008.0
20260509174524 82 276 0.0 2.0 0.00 0.01 0.00 79 1008.5
20260509173024 82 259 0.0 1.0 0.00 0.01 0.00 80 1008.6
20260509171523 82 42 0.0 4.0 0.00 0.01 0.00 80 1008.5
20260509170022 82 20 0.0 3.0 0.00 0.01 0.00 83 1008.7
20260509164521 81 110 0.0 2.0 0.00 0.01 0.00 84 1008.8
20260509163020 82 270 0.0 1.0 0.00 0.01 0.00 82 1008.7
20260509161520 82 158 0.0 0.0 0.00 0.01 0.00 83 1008.6
20260509160018 81 148 0.0 2.0 0.00 0.01 0.00 85 1008.5
20260509154519 80 74 0.0 2.0 0.00 0.01 0.00 87 1008.6
20260509153013 78 127 1.0 3.0 0.00 0.01 0.00 89 1008.1
20260509151507 77 174 0.0 0.0 0.00 0.01 0.00 91 1008.5
20260509150005 77 130 0.0 0.0 0.00 0.01 0.00 91 1008.3
20260509144505 77 145 0.0 1.0 0.00 0.01 0.00 92 1008.5
20260509143005 77 179 0.0 0.0 0.00 0.01 0.00 93 1008.7
20260509141504 76 26 0.0 0.0 0.00 0.01 0.00 95 1008.7
20260509140049 76 173 0.0 0.0 0.00 0.01 0.00 96 1008.5
20260509134547 76 265 0.0 0.0 0.00 0.01 0.00 96 1008.2
20260509133046 75 274 0.0 0.0 0.00 0.01 0.00 96 1008.6
20260509131549 75 132 0.0 0.0 0.00 0.01 0.00 96 1008.6
20260509130057 75 136 0.0 2.0 0.00 0.01 0.00 97 1008.3
20260509124545 75 187 0.0 0.0 0.00 0.01 0.00 96 1008.6
20260509123049 75 187 0.0 0.0 0.00 0.01 0.00 96 1008.6
20260509121542 74 186 0.0 0.0 0.00 0.01 0.00 96 1008.3
20260509120041 74 187 0.0 0.0 0.00 0.01 0.00 96 1008.5
20260509114544 74 186 0.0 0.0 0.00 0.01 0.00 96 1008.4
20260509113042 74 187 0.0 0.0 0.00 0.01 0.00 96 1008.4
20260509111540 74 187 0.0 0.0 0.00 0.01 0.00 96 1008.4
20260509110039 74 187 0.0 0.0 0.00 0.01 0.00 96 1007.9
20260509104540 74 187 0.0 0.0 0.00 0.01 0.00 96 1007.8
20260509103038 74 187 0.0 0.0 0.00 0.01 0.00 96 1007.9
20260509101540 74 186 0.0 0.0 0.00 0.01 0.00 96 1007.8
20260509100038 74 187 0.0 0.0 0.00 0.01 0.00 96 1007.8
20260509094537 74 187 0.0 0.0 0.00 0.01 0.00 96 1007.7
20260509093037 74 187 0.0 0.0 0.00 0.01 0.00 96 1007.6
20260509091536 74 187 0.0 0.0 0.00 0.01 0.00 96 1007.2
20260509090037 73 187 0.0 0.0 0.00 0.01 0.00 96 1007.3
20260509084538 73 187 0.0 0.0 0.00 0.01 0.00 96 1007.4
20260509083038 73 187 0.0 0.0 0.00 0.01 0.00 96 1007.5
20260509081536 73 187 0.0 0.0 0.00 0.01 0.00 96 1007.6
20260509080038 73 187 0.0 0.0 0.00 0.01 0.00 96 1007.7
20260509074531 73 187 0.0 0.0 0.00 0.01 0.00 95 1008.0
20260509073029 73 187 0.0 0.0 0.00 0.01 0.00 95 1008.1
20260509071528 73 187 0.0 0.0 0.00 0.01 0.00 95 1008.1
20260509070028 73 187 0.0 0.0 0.00 0.01 0.00 95 1008.0
20260509064528 73 187 0.0 0.0 0.00 0.01 0.00 95 1007.9
20260509063023 73 187 0.0 0.0 0.00 0.01 0.00 95 1008.1
20260509061523 73 187 0.0 0.0 0.00 0.01 0.00 95 1008.3
20260509060024 74 187 0.0 0.0 0.00 0.01 0.00 95 1008.2
20260509054520 74 187 0.0 0.0 0.00 0.01 0.00 95 1008.2
20260509053018 74 186 0.0 0.0 0.00 0.01 0.00 95 1008.5
20260509051517 75 150 0.0 1.0 0.00 0.01 0.00 95 1008.3
20260509050014 75 142 0.0 1.0 0.00 0.01 0.00 95 1008.6